Погода в Гагарине

Россия / Липецкая область     53°20′35″N   39°41′56″E
темп.,
°C
ветер,
м/с
пор.,
м/с
влажн.,
%
обл.,
%
осадки,
мм/ч
давл.,
гПа
погр.,
м
18 мая, вт
вт1800:00+18юв5156452 0.0 1009305
03:00+16вюв41371100 0.0 1009251
06:00+15вюв41272100 0.0 1009231
09:00+21юв512540 0.0 1009527
12:00+25вюв710445 0.0 1008930
15:00+27вюв813515 0.0 10061552
18:00+24юв814615 0.0 1006714
21:00+19вюв39802 0.0 1006161
19 мая, ср
ср1900:00+16юз36933 0.1 1007116
03:00+15ююв339191 0.3 100749
06:00+15ююв38925 0.3 1008281
09:00+19ююв467481 0.3 1009755
12:00+22юв575717 0.0 10081512
15:00+23юв4761100 0.3 10071446
18:00+20ююв3876100 0.7 1006234
21:00+16юз488740 1.4 1006224
20 мая, чт
чт2000:00+14ююв349388 0.0 100673
03:00+13ююв4996100 0.0 1007404
06:00+12юв5119454 0.0 1007461
09:00+16ююв797892 0.0 1007941
12:00+18ююв796080 0.3 10071678
15:00+18ю676965 1.8 10081284
18:00+17ю367266 0.4 1008799
21:00+15юз4983100 0.5 1009331
21 мая, пт
пт2100:00+12ююз389598 0.0 1009236
03:00+12юз5993100 0.1 1010388
06:00+12юз5991100 0.1 1011639
09:00+14зюз7974100 0.2 10131077
12:00+16зюз5766100 0.1 10141105
15:00+17з466297 0.1 10151167
18:00+17зсз2364100 0.0 1016715
21:00+14св3478100 0.1 101790
22 мая, сб
сб2200:00+13всв3583100 0.3 1016159
03:00+13всв3897100 1.9 1014252
06:00+12ссв61098100 3.9 1015348
09:00+13св61096100 4.5 1015443
12:00+14св4593100 0.2 1015436
15:00+17ссв4485100 0.3 1014602
18:00+15с568960 0.0 1015390
21:00+13ссв589291 0.0 1016328